Location: Holiday Acres Laynes 2 Mobile Home Park
(26.7249°N, 81.8671°W)
Time: 07:40:33
(UTC+00:00)

Cosmos 1933 - Pass Details

Date: 25 November 2020
Orbit: 546 x 564 km, 82.5° (Epoch: 21 January)

Event Time Altitude Azimuth Distance (km) Brightness Sun altitude
Rises 23:00:14 0° 176° (S) 2,702 7.1 -6.2°
Reaches altitude 10° 23:02:24 10° 172° (S) 1,815 6.1 -6.7°
Maximum altitude 23:06:19 57° 93° (E) 652 3.4 -7.5°
Drops below altitude 10° 23:10:16 10° 15° (NNE) 1,835 5.7 -8.3°
Sets 23:12:28 0° 11° (N) 2,735 6.6 -8.8°
